www.pogodaiklimat.ru

Погода и климат >> Архив погоды >> Россия >> Свердловская область >> Тугулым


ПОГОДА в Тугулыме

  • Прогноз погоды в Тугулыме
  • Монитор погоды в Тугулыме

АРХИВ ПОГОДЫ в Тугулыме

Время (UTC), дата Ветер
(напр.,м/с)
 
Видим.   Явления Облачность Т
(С)
Тd
(С)
f
(%)
Тe
(С)
Тes
(С)
Комфортность P
(гПа)
Po
(гПа)
Тmin
(С)
Tmax
(С)
R
(мм)
R24
(мм)
S
(см)
18 10.09 СЗ 2 10 км 10 баллов +12.1 +8.8 80 +11 +11 1025.7 1014.7
21 10.09 З 2 10 км 10/0
[Ac As]
+12.5 +7.2 70 +12 +12 1024.3 1013.3
00 11.09 СЗ 2 10 км 9 баллов +10.6 +7.1 79 +9 +9 1027.0 1016.0
03 11.09 СЗ 2 20 км 9/0
[Ci fib]
+11.8 +8.1 78 +11 +12 1028.1 1017.1 +9.4
06 11.09 С 2 20 км 9/1 600 м
[Cu hum Ci sp]
+15.7 +8.2 61 +16 +16 1030.9 1020.0
09 11.09 С 2 20 км 9/8 600 м
[Cu med, cong Ci fib]
+16.7 +6.4 51 +17 +18 1029.3 1018.5
12 11.09 СЗ 2 20 км 9/4 600 м
[Cu med, cong Ac trans Ci sp]
+17.8 +6.6 48 +18 +19 1029.5 1018.7
15 11.09 СЗ 1 10 км 9/3 600 м
[Cu hum Ac lent Ci sp]
+10.6 +7.8 83 +10 +10 1029.1 1018.0 +18.5
18 11.09 СЗ 1 10 км 9/0
[Ac trans Ci sp]
+6.5 +5.5 93 +5 +5 1029.9 1018.7
21 11.09 З 1 10 км 10/10 600 м
[Sc]
+9.1 +8.2 94 +8 +8 1027.0 1015.9
00 12.09 З 1 10 км 9/4 600 м
[Cb cap Ac cast]
+9.5 +8.4 93 +9 +9 1025.8 1014.7
03 12.09 З 3 20 км 9/4 600 м
[Cb cap Ac cast Ci sp]
+11.7 +9.7 88 +10 +10 1023.5 1012.5 +6.1
06 12.09 З 3 10 км дождь 10/8 300 м
[Frnb As op]
+11.6 +10.5 93 +10 +10 1024.2 1013.3
09 12.09 З 3 20 км {дождь} 9/8 600 м
[Cb cap Ac cast]
+15.4 +12.7 84 +15 +15 1022.1 1011.3
12 12.09 СЗ 4 20 км {дождь} 9/9 600 м
[Cb cap]
+17.5 +11.3 67 +17 +17 1021.7 1010.9
15 12.09 З 1 10 км 9/4 600 м
[Sc Ac trans]
+12.5 +10.5 88 +12 +12 1022.3 1011.3 +18.6 4
18 12.09 СЗ 2 10 км 9/0
[Ac cast]
+11.6 +10.2 91 +10 +10 1022.7 1011.7
21 12.09 З 1 10 км 9/9 600 м
[Sc]
+9.7 +8.9 95 +9 +9 1022.5 1011.4
00 13.09 СЗ 1 10 км 6/6 600 м
[Sc]
+7.2 +6.5 95 +6 +6 1023.1 1012.0
03 13.09 штиль 0 20 км 10/0
[Cs]
+9.3 +8.6 95 +8 +9 1021.7 1010.6 +6.6
06 13.09 ЮЗ 2 20 км 9/3 1000 м
[Cu med, cong Cs]
+15.7 +11.7 77 +16 +16 1021.5 1010.7
09 13.09 ЮЗ 3 20 км 9/4 600 м
[Cu hum Cc]
+20.3 +13.3 64 +23 +25 комфорт 1018.3 1007.7
12 13.09 З 4 20 км 9/3 600 м
[Cu hum Ci sp]
+21.8 +12.9 57 +24 +24 комфорт 1017.2 1006.7
15 13.09 штиль 0
{14}
10 км в посл. час гроза {ливн. осадки} 9/6 600 м
[Cb calv Ac cast Ci fib]
+13.1 +12.2 94 +13 +13 1017.2 1006.4 +22.2 5
18 13.09 З 1 10 км {гроза, ливн. осадки} 9/0
[Ci fib]
+11.4 +10.5 94 +11 +11 1017.0 1006.1
21 13.09 З 2 10 км 9/0
[Ac cast]
+11.8 +10.9 94 +11 +11 1016.4 1005.5
00 14.09 З 2 10 км 3/3 600 м
[Sc Ac lent]
+10.1 +9.2 94 +8 +8 1017.6 1006.7
03 14.09 З 2 20 км 8/0
[Ci]
+11.1 +10.3 95 +10 +11 1016.1 1005.1 +8.9
06 14.09 ЮЗ 2 20 км 9 баллов +18.2 +13.5 74 +19 +20 1015.9 1005.3
09 14.09 З 4 20 км 9/0
[Ci fib]
+22.0 +12.2 54 +24 +28 комфорт 1014.2 1003.7
12 14.09 З 2 20 км 9 баллов +22.5 +11.8 51 +25 +25 комфорт 1014.4 1004.0
15 14.09 штиль 0 10 км 3/0
[Ci fib]
+14.0 +12.2 89 +14 +14 1013.9 1003.1 +23.1
18 14.09 С 1 10 км 9/0
[Ci fib]
+11.5 +9.7 89 +11 +11 1014.9 1004.0
21 14.09 СЗ 1 10 км 9/0
[Ac trans Ci fib]
+9.0 +8.2 95 +8 +8 1013.9 1002.9
00 15.09 штиль 0 10 км 9/0
[Ci fib]
+7.4 +6.7 95 +6 +6 1015.0 1004.0
03 15.09 штиль 0 20 км 3/0
[Ci fib]
+11.8 +10.7 93 +11 +12 1013.0 1002.1 +6.7
06 15.09 ЮЗ 3 20 км 9 баллов +21.0 +9.6 48 +23 +24 комфорт 1013.2 1002.7
09 15.09 ЮЗ 5
{10}
20 км 1/1 600 м
[Cu hum]
+24.5 +5.0 28 +24 +27 комфорт 1010.2 999.8
12 15.09 ЮЗ 4
{11}
20 км 9/4 600 м
[Cu med, cong Ci sp]
+24.1 +4.4 28 +24 +24 комфорт 1008.8 998.4
15 15.09 Ю 1 10 км 9/0
[Ac trans Ci fib]
+16.3 +7.0 54 +17 +17 1008.4 997.7 +24.8
18 15.09 штиль 0 10 км 9 баллов +12.3 +8.0 75 +12 +12 1009.5 998.7
21 15.09 З 1 10 км 9/6 1000 м
[Sc Ac trans]
+12.9 +8.1 73 +13 +13 1007.9 997.1
00 16.09 СЗ 1 10 км 9 баллов +10.0 +7.4 84 +10 +10 1009.6 998.7
03 16.09 штиль 0 20 км 9/3 1000 м
[Sc Ac trans Ci sp]
+11.9 +8.7 81 +11 +12 1006.9 996.1 +9.4
06 16.09 ЮЗ 2 20 км слаб. ливневой дождь 9 баллов +15.7 +9.6 67 +16 +16 1006.6 996.0
09 16.09 З 3 20 км {ливн. осадки} 10/10 600 м
[Cb cap]
+14.1 +9.7 75 +13 +13 1005.2 994.5
12 16.09 штиль 0 20 км слаб. дождь 10/10 600 м
[Sc]
+9.7 +8.2 90 +9 +9 1005.6 994.7
15 16.09 ЮЗ 1 10 км {дождь} 10/10 600 м
[Sc]
+8.7 +7.8 94 +8 +8 1004.9 994.0 +16.1 2
18 16.09 ЮЗ 1 10 км {дождь} 10/0
[As trans]
+7.9 +7.1 95 +7 +7 1004.7 993.8
21 16.09 ЮЗ 1 10 км 10/0
[As trans]
+7.3 +6.6 95 +6 +6 1003.7 992.7
00 17.09 Ю 1 10 км 10 баллов +6.8 +6.1 95 +6 +6 1002.9 992.0
03 17.09 Ю 3 10 км слаб. дождь 10/4 600 м
[Frnb As op]
+7.7 +6.7 93 +5 +5 1000.9 990.0 +6.2 1
06 17.09 ЮЗ 3 20 км 9 баллов +10.6 +8.5 87 +9 +9 1001.4 990.7
09 17.09 З 4
{11}
20 км ледяной дождь (гололёд) 9/9 600 м
[Cb cap]
+13.1 +8.3 73 +11 +12 1000.7 990.0
12 17.09 ЮЗ 3
{10}
20 км в посл. час ливневой дождь 9/9 600 м
[Cb cap]
+11.2 +9.0 86 +9 +9 1002.0 991.2

 

Местоположение метеостанции Тугулым (Свердловская область, Россия): широта 57.07 долгота 64.67 высота над уровнем моря 90 м.

В архиве по умолчанию представлена погода в Тугулыме за последнюю неделю. Архивные данные за месяц целиком и за предыдущие месяцы, начиная с января 2011 года, Вы можете получить, выбрав интересующий диапазон дат из раскрывающегося списка и нажав кнопку "Ввод!".


*Определитесь, кто Вы:
робот инопланетянин человек

Внимание! Время в таблицах - всемирное. Для получения местного времени необходимо прибавить поправку, которая равна 5 ч.

Смотрите также архив погоды в соседних городах и на ближайших метеорологических станциях:

Погода в Тюмени (Тюменская область, Россия) (46 км)
Погода в Шатрово (Курганская область, Россия) (61 км)
Погода в Бутке (Свердловская область, Россия) (67 км)
Погода в Исетском (Тюменская область, Россия) (78 км)
Погода в Ялуторовске (Тюменская область, Россия) (111 км)
Погода в Нижней Тавде (Тюменская область, Россия) (112 км)
Погода в Тавде (Свердловская область, Россия) (117 км)
Погода в Ирбите (Свердловская область, Россия) (119 км)
Погода в Камышлове (Свердловская область, Россия) (121 км)
Погода в Туринске (Свердловская область, Россия) (124 км)

Пояснения к столбцам:

Ветер - указаны скорость ветра в м/с - средняя за 10 мин, порывы в срок и между сроками (в фигурных скобках) и направление, откуда дует ветер: С - северный, СВ - северо-восточный, В - восточный, ЮВ - юго-восточный, Ю - южный, ЮЗ - юго-западный, З - западный, СЗ - северо-западный.
Видимость - горизонтальная дальность видимости в метрах или километрах. При видимости от 1 до 10 км при отсутствии осадков обычно наблюдается дымка, при ухудшении видимости до 1 км и менее - туман. В сухую погоду видимость может ухудшаться дымом, пылью или мглою.
Явления - указаны атмосферные явления, наблюдавшиеся в срок или в последний час перед сроком; фигурными скобками обозначены явления, наблюдавшиеся между сроками (за 1-3 часа до срока); квадратными скобками обозначены град или гололедные отложения с указанием их диаметра в мм.
Облачность - указаны через наклонную черту общая и нижняя облачность в баллах и высота нижней границы облаков в метрах; квадратными скобками обозначены формы облаков: Ci - перистые, Cs - перисто-слоистые, Cc - перисто-кучевые, Ac - высококучевые, As - высокослоистые, Sc - слоисто-кучевые, Ns - слоисто-дождевые, Cu - кучевые, Cb - кучево-дождевые. Подробнее классификацию облаков см. в Атласе облаков (PDF).
T - Температура воздуха - температура, измеренная на высоте 2 м над землей.
Td - Температура точки росы - температура, при понижении до которой содержащийся в воздухе водяной пар достигнет насыщения.
f - Относительная влажность воздуха - влажноcть воздуха, измеренная на высоте 2 м над землей.
Te - Эффективная температура - температура, которую ощущает одетый по сезону человек в тени. Характеристика душности погоды. При расчете учитывается влияние влажности воздуха и скорости ветра на теплоощущения человека.
Tes - Эффективная температура на солнце - температура, которую ощущает человек, с поправкой на солнечный нагрев. Характеристика знойности погоды. Зависит от высоты солнца над горизонтом, облачности и скорости ветра. Ночью, в пасмурную погоду, а также при ветре 12 м/с и более поправка равна нулю.
P - Атмосферное давление - приведенное к уровню моря атмосферное давление.
Po - Атмосферное давление - измеренное на уровне метеостанции атмосферное давление.
Tmin - Минимальная температура - минимум температуры воздуха на высоте 2 м над землей.
Tmax - Максимальная температура - максимум температуры воздуха на высоте 2 м над землей.
R - Количество осадков - Количество выпавших осадков за период времени, мм. При наведении курсора мыши на число - период времени, за который выпало указанное количество осадков.
R24 - Количество осадков - Количество выпавших осадков за 24 часа, мм.
S - Снежный покров - Высота снежного покрова, см. При наведении курсора мыши на число - состояние снежного покрова и степень покрытия местности в баллах.